| time (UTC) | temp F | wind direction | speed MPH | gust MPH | rain 1hr in | rain 24hr in | rain mn in | humidity % | barometer mb |
| 20260904032504 | 67 | 210 | 2.0 | 2.0 | 0.00 | 0.00 | 0.00 | 82 | 1010.4 |
| 20260904031957 | 67 | 240 | 2.0 | 3.0 | 0.00 | 0.00 | 0.00 | 82 | 1010.4 |
| 20260904031436 | 68 | 254 | 1.0 | 3.0 | 0.00 | 0.00 | 0.00 | 82 | 1010.7 |
| 20260904030930 | 68 | 249 | 1.0 | 3.0 | 0.00 | 0.00 | 0.00 | 82 | 1010.4 |
| 20260904030404 | 68 | 229 | 1.0 | 3.0 | 0.00 | 0.00 | 0.00 | 81 | 1010.4 |
| 20260904025901 | 68 | 225 | 2.0 | 4.0 | 0.00 | 0.00 | 0.00 | 81 | 1010.4 |
| 20260904025357 | 68 | 281 | 1.0 | 4.0 | 0.00 | 0.00 | 0.00 | 81 | 1010.4 |
| 20260904024829 | 68 | 267 | 1.0 | 3.0 | 0.00 | 0.00 | 0.00 | 81 | 1010.4 |
| 20260904023757 | 68 | 228 | 5.0 | 6.0 | 0.00 | 0.00 | 0.00 | 80 | 1010.4 |
| 20260904023236 | 68 | 280 | 2.0 | 7.0 | 0.00 | 0.00 | 0.00 | 80 | 1010.4 |
| 20260904022729 | 68 | 264 | 4.0 | 7.0 | 0.00 | 0.00 | 0.00 | 80 | 1010.4 |
| 20260904021138 | 68 | 279 | 3.0 | 10.0 | 0.00 | 0.00 | 0.00 | 80 | 1010.4 |
| 20260904020106 | 69 | 264 | 6.0 | 9.0 | 0.00 | 0.00 | 0.00 | 79 | 1010.4 |
| 20260904015557 | 69 | 230 | 7.0 | 9.0 | 0.00 | 0.00 | 0.00 | 78 | 1010.4 |
| 20260904015038 | 70 | 250 | 3.0 | 8.0 | 0.00 | 0.00 | 0.00 | 79 | 1010.4 |
| 20260904013537 | 71 | 301 | 9.0 | 10.0 | 0.00 | 0.00 | 0.00 | 77 | 1010.4 |
| 20260904013027 | 71 | 192 | 3.0 | 10.0 | 0.00 | 0.00 | 0.00 | 78 | 1010.4 |
| 20260904012505 | 71 | 236 | 6.0 | 9.0 | 0.00 | 0.00 | 0.00 | 77 | 1010.4 |
| 20260904011949 | 71 | 266 | 5.0 | 11.0 | 0.00 | 0.00 | 0.00 | 77 | 1010.4 |
| 20260904010950 | 71 | 250 | 9.0 | 11.0 | 0.00 | 0.00 | 0.00 | 75 | 1010.4 |
| 20260904010441 | 71 | 238 | 8.0 | 11.0 | 0.00 | 0.00 | 0.00 | 74 | 1010.4 |
| 20260904005936 | 72 | 215 | 5.0 | 13.0 | 0.00 | 0.00 | 0.00 | 72 | 1010.4 |
| 20260904005432 | 72 | 168 | 9.0 | 13.0 | 0.00 | 0.00 | 0.00 | 72 | 1010.4 |
| 20260904004914 | 72 | 247 | 6.0 | 10.0 | 0.00 | 0.00 | 0.00 | 72 | 1010.7 |
| 20260904004408 | 73 | 240 | 7.0 | 10.0 | 0.00 | 0.00 | 0.00 | 72 | 1010.7 |
| 20260904003902 | 73 | 219 | 5.0 | 13.0 | 0.00 | 0.00 | 0.00 | 72 | 1010.4 |
| 20260904002848 | 72 | 249 | 7.0 | 13.0 | 0.00 | 0.00 | 0.00 | 73 | 1010.4 |
| 20260904002342 | 73 | 228 | 9.0 | 14.0 | 0.00 | 0.00 | 0.00 | 72 | 1010.7 |
| 20260904001837 | 72 | 219 | 5.0 | 14.0 | 0.00 | 0.00 | 0.00 | 73 | 1010.7 |
| 20260904000822 | 73 | 270 | 5.0 | 14.0 | 0.00 | 0.00 | 0.00 | 72 | 1010.7 |
| 20260904000318 | 72 | 245 | 6.0 | 14.0 | 0.00 | 0.00 | 0.00 | 72 | 1010.7 |
| 20260903235809 | 73 | 250 | 10.0 | 14.0 | 0.00 | 0.00 | 0.00 | 72 | 1010.7 |
| 20260903234756 | 73 | 217 | 9.0 | 16.0 | 0.00 | 0.00 | 0.00 | 71 | 1010.7 |
| 20260903234250 | 73 | 228 | 4.0 | 16.0 | 0.00 | 0.00 | 0.00 | 72 | 1010.7 |
| 20260903233743 | 73 | 225 | 6.0 | 11.0 | 0.00 | 0.00 | 0.00 | 70 | 1010.7 |
| 20260903233237 | 74 | 253 | 6.0 | 11.0 | 0.00 | 0.00 | 0.00 | 70 | 1010.7 |
| 20260903232730 | 74 | 213 | 6.0 | 13.0 | 0.00 | 0.00 | 0.00 | 70 | 1011.1 |
| 20260903232223 | 73 | 254 | 4.0 | 15.0 | 0.00 | 0.00 | 0.00 | 71 | 1011.1 |
| 20260903231211 | 73 | 200 | 8.0 | 14.0 | 0.00 | 0.00 | 0.00 | 70 | 1011.1 |
| 20260903230704 | 73 | 277 | 8.0 | 14.0 | 0.00 | 0.00 | 0.00 | 72 | 1011.1 |
| 20260903230157 | 73 | 231 | 9.0 | 14.0 | 0.00 | 0.00 | 0.00 | 72 | 1011.1 |
| 20260903225651 | 74 | 241 | 10.0 | 14.0 | 0.00 | 0.00 | 0.00 | 71 | 1011.1 |
| 20260903225144 | 74 | 238 | 11.0 | 17.0 | 0.00 | 0.00 | 0.00 | 70 | 1011.1 |
| 20260903224639 | 73 | 225 | 6.0 | 17.0 | 0.00 | 0.00 | 0.00 | 72 | 1011.4 |
| 20260903224131 | 73 | 205 | 10.0 | 15.0 | 0.00 | 0.00 | 0.00 | 71 | 1011.1 |
| 20260903223625 | 73 | 232 | 9.0 | 15.0 | 0.00 | 0.00 | 0.00 | 71 | 1011.4 |
| 20260903223118 | 73 | 265 | 9.0 | 15.0 | 0.00 | 0.00 | 0.00 | 72 | 1011.4 |
| 20260903222612 | 73 | 237 | 11.0 | 14.0 | 0.00 | 0.00 | 0.00 | 71 | 1011.4 |
| 20260903222106 | 73 | 242 | 8.0 | 15.0 | 0.00 | 0.00 | 0.00 | 70 | 1011.4 |
| 20260903221558 | 73 | 272 | 8.0 | 16.0 | 0.00 | 0.00 | 0.00 | 71 | 1011.8 |
| 20260903221054 | 73 | 252 | 6.0 | 16.0 | 0.00 | 0.00 | 0.00 | 70 | 1011.8 |
| 20260903220546 | 74 | 220 | 10.0 | 14.0 | 0.00 | 0.00 | 0.00 | 69 | 1011.8 |
| 20260903220040 | 73 | 278 | 8.0 | 15.0 | 0.00 | 0.00 | 0.00 | 70 | 1011.8 |
| 20260903215532 | 73 | 277 | 9.0 | 15.0 | 0.00 | 0.00 | 0.00 | 69 | 1011.8 |
| 20260903214520 | 74 | 294 | 8.0 | 14.0 | 0.00 | 0.00 | 0.00 | 69 | 1011.8 |
| 20260903214012 | 74 | 228 | 9.0 | 14.0 | 0.00 | 0.00 | 0.00 | 67 | 1011.8 |
| 20260903213506 | 74 | 222 | 6.0 | 11.0 | 0.00 | 0.00 | 0.00 | 68 | 1011.8 |
| 20260903213000 | 74 | 213 | 7.0 | 14.0 | 0.00 | 0.00 | 0.00 | 67 | 1011.8 |
| 20260903212454 | 74 | 247 | 6.0 | 17.0 | 0.00 | 0.00 | 0.00 | 68 | 1011.8 |
| 20260903211947 | 75 | 235 | 11.0 | 17.0 | 0.00 | 0.00 | 0.00 | 67 | 1011.8 |
| 20260903211440 | 75 | 213 | 8.0 | 13.0 | 0.00 | 0.00 | 0.00 | 65 | 1011.8 |
| 20260903210934 | 75 | 241 | 5.0 | 13.0 | 0.00 | 0.00 | 0.00 | 67 | 1011.8 |
| 20260903210427 | 75 | 287 | 7.0 | 15.0 | 0.00 | 0.00 | 0.00 | 67 | 1011.8 |
| 20260903205920 | 74 | 246 | 4.0 | 15.0 | 0.00 | 0.00 | 0.00 | 67 | 1012.1 |
| 20260903205414 | 74 | 254 | 6.0 | 14.0 | 0.00 | 0.00 | 0.00 | 67 | 1012.1 |
| 20260903204908 | 74 | 202 | 8.0 | 14.0 | 0.00 | 0.00 | 0.00 | 68 | 1012.1 |
| 20260903204401 | 74 | 251 | 5.0 | 11.0 | 0.00 | 0.00 | 0.00 | 68 | 1012.1 |
| 20260903203348 | 73 | 256 | 6.0 | 15.0 | 0.00 | 0.00 | 0.00 | 68 | 1012.1 |
| 20260903202335 | 75 | 270 | 5.0 | 16.0 | 0.00 | 0.00 | 0.00 | 65 | 1012.1 |
| 20260903201828 | 74 | 208 | 6.0 | 16.0 | 0.00 | 0.00 | 0.00 | 67 | 1012.1 |
| 20260903200815 | 74 | 247 | 10.0 | 14.0 | 0.00 | 0.00 | 0.00 | 67 | 1012.4 |
| 20260903200309 | 74 | 277 | 6.0 | 14.0 | 0.00 | 0.00 | 0.00 | 69 | 1012.4 |
| 20260903195803 | 74 | 238 | 8.0 | 13.0 | 0.00 | 0.00 | 0.00 | 68 | 1012.4 |
| 20260903195255 | 74 | 230 | 8.0 | 13.0 | 0.00 | 0.00 | 0.00 | 68 | 1012.4 |
| 20260903194243 | 74 | 235 | 5.0 | 14.0 | 0.00 | 0.00 | 0.00 | 68 | 1012.4 |
| 20260903193737 | 74 | 194 | 5.0 | 14.0 | 0.00 | 0.00 | 0.00 | 69 | 1012.4 |
| 20260903193230 | 73 | 210 | 10.0 | 14.0 | 0.00 | 0.00 | 0.00 | 70 | 1012.8 |
| 20260903192724 | 74 | 259 | 10.0 | 14.0 | 0.00 | 0.00 | 0.00 | 69 | 1012.8 |
| 20260903192216 | 73 | 231 | 8.0 | 13.0 | 0.00 | 0.00 | 0.00 | 70 | 1012.8 |
| 20260903191710 | 73 | 220 | 9.0 | 14.0 | 0.00 | 0.00 | 0.00 | 69 | 1012.8 |
| 20260903191203 | 73 | 233 | 10.0 | 14.0 | 0.00 | 0.00 | 0.00 | 69 | 1012.8 |
| 20260903185644 | 74 | 256 | 8.0 | 13.0 | 0.00 | 0.00 | 0.00 | 68 | 1013.1 |
| 20260903185140 | 74 | 306 | 6.0 | 11.0 | 0.00 | 0.00 | 0.00 | 67 | 1013.1 |
| 20260903184125 | 75 | 218 | 4.0 | 13.0 | 0.00 | 0.00 | 0.00 | 67 | 1013.1 |
| 20260903183618 | 74 | 327 | 4.0 | 13.0 | 0.00 | 0.00 | 0.00 | 68 | 1013.1 |
| 20260903183111 | 74 | 290 | 4.0 | 11.0 | 0.00 | 0.00 | 0.00 | 69 | 1013.1 |
| 20260903182605 | 75 | 226 | 4.0 | 10.0 | 0.00 | 0.00 | 0.00 | 67 | 1013.4 |
| 20260903181552 | 75 | 299 | 0.0 | 7.0 | 0.00 | 0.00 | 0.00 | 64 | 1013.4 |
| 20260903181046 | 76 | 177 | 4.0 | 10.0 | 0.00 | 0.00 | 0.00 | 64 | 1013.4 |
| 20260903180539 | 75 | 199 | 8.0 | 10.0 | 0.00 | 0.00 | 0.00 | 63 | 1013.4 |
| 20260903175526 | 77 | 181 | 4.0 | 7.0 | 0.00 | 0.00 | 0.00 | 60 | 1013.4 |
| 20260903175020 | 75 | 203 | 2.0 | 6.0 | 0.00 | 0.00 | 0.00 | 62 | 1013.4 |
| 20260903174513 | 75 | 193 | 3.0 | 9.0 | 0.00 | 0.00 | 0.00 | 63 | 1013.4 |
| 20260903173500 | 74 | 111 | 3.0 | 8.0 | 0.00 | 0.00 | 0.00 | 65 | 1013.4 |
| 20260903172954 | 74 | 199 | 3.0 | 7.0 | 0.00 | 0.00 | 0.00 | 66 | 1013.4 |
| 20260903171434 | 76 | 161 | 4.0 | 7.0 | 0.00 | 0.00 | 0.00 | 61 | 1013.4 |
| 20260903170928 | 75 | 328 | 1.0 | 6.0 | 0.00 | 0.00 | 0.00 | 63 | 1013.4 |
| 20260903170422 | 75 | 317 | 3.0 | 7.0 | 0.00 | 0.00 | 0.00 | 62 | 1013.4 |
| 20260903165914 | 73 | 189 | 1.0 | 7.0 | 0.00 | 0.00 | 0.00 | 69 | 1013.4 |
| 20260903165408 | 71 | 256 | 0.0 | 6.0 | 0.00 | 0.00 | 0.00 | 72 | 1013.4 |
| 20260903164902 | 71 | 241 | 0.0 | 7.0 | 0.00 | 0.00 | 0.00 | 73 | 1013.4 |
| 20260903164355 | 71 | 144 | 4.0 | 4.0 | 0.00 | 0.00 | 0.00 | 72 | 1013.4 |
| 20260903163849 | 72 | 139 | 3.0 | 6.0 | 0.00 | 0.00 | 0.00 | 71 | 1013.4 |
| 20260903163342 | 71 | 12 | 1.0 | 6.0 | 0.00 | 0.00 | 0.00 | 72 | 1013.4 |
| 20260903162836 | 71 | 193 | 2.0 | 6.0 | 0.00 | 0.00 | 0.00 | 72 | 1013.4 |
| 20260903162329 | 71 | 190 | 4.0 | 6.0 | 0.00 | 0.00 | 0.00 | 72 | 1013.4 |
| 20260903161823 | 72 | 158 | 4.0 | 6.0 | 0.00 | 0.00 | 0.00 | 70 | 1013.4 |
| 20260903161316 | 71 | 107 | 2.0 | 6.0 | 0.00 | 0.00 | 0.00 | 72 | 1013.4 |
| 20260903160810 | 72 | 220 | 4.0 | 7.0 | 0.00 | 0.00 | 0.00 | 71 | 1013.4 |
| 20260903160304 | 71 | 146 | 4.0 | 7.0 | 0.00 | 0.00 | 0.00 | 73 | 1013.4 |
| 20260903155757 | 71 | 89 | 5.0 | 6.0 | 0.00 | 0.00 | 0.00 | 72 | 1013.4 |
| 20260903155251 | 71 | 120 | 2.0 | 6.0 | 0.00 | 0.00 | 0.00 | 73 | 1013.4 |
| 20260903154744 | 71 | 169 | 2.0 | 6.0 | 0.00 | 0.00 | 0.00 | 74 | 1013.4 |
| 20260903154237 | 71 | 100 | 3.0 | 6.0 | 0.00 | 0.00 | 0.00 | 72 | 1013.4 |
| 20260903153731 | 71 | 128 | 3.0 | 6.0 | 0.00 | 0.00 | 0.00 | 74 | 1013.4 |
| 20260903153225 | 71 | 108 | 3.0 | 4.0 | 0.00 | 0.00 | 0.00 | 75 | 1013.4 |
| 20260903152717 | 69 | 142 | 3.0 | 4.0 | 0.00 | 0.00 | 0.00 | 77 | 1013.4 |
| 20260903152211 | 69 | 174 | 4.0 | 4.0 | 0.00 | 0.00 | 0.00 | 77 | 1013.4 |
| 20260903151705 | 70 | 136 | 2.0 | 6.0 | 0.00 | 0.00 | 0.00 | 76 | 1013.1 |
| 20260903150652 | 71 | 137 | 3.0 | 7.0 | 0.00 | 0.00 | 0.00 | 75 | 1013.1 |
| 20260903150145 | 70 | 299 | 0.0 | 2.0 | 0.00 | 0.00 | 0.00 | 76 | 1013.1 |
| 20260903145640 | 70 | 29 | 1.0 | 2.0 | 0.00 | 0.00 | 0.00 | 77 | 1013.1 |
| 20260903144626 | 69 | 162 | 2.0 | 4.0 | 0.00 | 0.00 | 0.00 | 78 | 1013.1 |
| 20260903144122 | 69 | 247 | 1.0 | 3.0 | 0.00 | 0.00 | 0.00 | 78 | 1013.1 |
| 20260903143613 | 69 | 280 | 0.0 | 4.0 | 0.00 | 0.00 | 0.00 | 79 | 1013.1 |
| 20260903143106 | 69 | 94 | 1.0 | 4.0 | 0.00 | 0.00 | 0.00 | 79 | 1013.1 |
| 20260903142600 | 69 | 111 | 2.0 | 3.0 | 0.00 | 0.00 | 0.00 | 79 | 1012.8 |
| 20260903141547 | 68 | 52 | 1.0 | 3.0 | 0.00 | 0.00 | 0.00 | 81 | 1012.8 |
| 20260903141041 | 68 | 50 | 0.0 | 3.0 | 0.00 | 0.00 | 0.00 | 82 | 1012.8 |
| 20260903140533 | 67 | 306 | 1.0 | 4.0 | 0.00 | 0.00 | 0.00 | 82 | 1012.8 |
| 20260903140027 | 67 | 164 | 1.0 | 4.0 | 0.00 | 0.00 | 0.00 | 82 | 1012.8 |
| 20260903135520 | 67 | 63 | 2.0 | 4.0 | 0.00 | 0.00 | 0.00 | 83 | 1012.8 |
| 20260903135014 | 67 | 15 | 1.0 | 6.0 | 0.00 | 0.00 | 0.00 | 83 | 1012.8 |
| 20260903134508 | 67 | 180 | 3.0 | 6.0 | 0.00 | 0.00 | 0.00 | 84 | 1012.4 |
| 20260903134002 | 67 | 64 | 3.0 | 6.0 | 0.00 | 0.00 | 0.00 | 84 | 1012.4 |
| 20260903133454 | 67 | 106 | 4.0 | 6.0 | 0.00 | 0.00 | 0.00 | 84 | 1012.4 |
| 20260903132948 | 67 | 7 | 0.0 | 6.0 | 0.00 | 0.00 | 0.00 | 84 | 1012.4 |
| 20260903131936 | 67 | 108 | 3.0 | 6.0 | 0.00 | 0.00 | 0.00 | 84 | 1012.8 |
| 20260903131428 | 67 | 61 | 4.0 | 6.0 | 0.00 | 0.00 | 0.00 | 84 | 1012.8 |
| 20260903130922 | 67 | 128 | 3.0 | 3.0 | 0.00 | 0.00 | 0.00 | 83 | 1012.4 |
| 20260903130416 | 67 | 346 | 0.0 | 3.0 | 0.00 | 0.00 | 0.00 | 83 | 1012.8 |
| 20260903125909 | 67 | 9 | 1.0 | 4.0 | 0.00 | 0.00 | 0.00 | 83 | 1012.8 |
| 20260903125403 | 67 | 327 | 1.0 | 4.0 | 0.00 | 0.00 | 0.00 | 83 | 1012.8 |
| 20260903124857 | 67 | 70 | 3.0 | 6.0 | 0.00 | 0.00 | 0.00 | 83 | 1012.8 |
| 20260903124349 | 67 | 29 | 3.0 | 6.0 | 0.00 | 0.00 | 0.00 | 83 | 1012.8 |
| 20260903123337 | 67 | 24 | 3.0 | 6.0 | 0.00 | 0.00 | 0.00 | 83 | 1012.4 |
| 20260903122830 | 67 | 33 | 4.0 | 6.0 | 0.00 | 0.00 | 0.00 | 83 | 1012.4 |
| 20260903122324 | 67 | 38 | 2.0 | 6.0 | 0.00 | 0.00 | 0.00 | 83 | 1012.4 |
| 20260903121311 | 67 | 354 | 2.0 | 6.0 | 0.00 | 0.00 | 0.00 | 82 | 1012.8 |
| 20260903120804 | 67 | 25 | 2.0 | 4.0 | 0.00 | 0.00 | 0.00 | 82 | 1012.4 |
| 20260903120258 | 67 | 54 | 2.0 | 3.0 | 0.00 | 0.00 | 0.00 | 82 | 1012.4 |
| 20260903115751 | 67 | 19 | 2.0 | 3.0 | 0.00 | 0.00 | 0.00 | 81 | 1012.8 |
| 20260903115245 | 66 | 357 | 2.0 | 4.0 | 0.00 | 0.00 | 0.00 | 81 | 1012.8 |
| 20260903114738 | 66 | 356 | 2.0 | 4.0 | 0.00 | 0.00 | 0.00 | 81 | 1012.8 |
| 20260903114231 | 66 | 44 | 2.0 | 4.0 | 0.00 | 0.00 | 0.00 | 81 | 1012.8 |
| 20260903113725 | 66 | 32 | 3.0 | 3.0 | 0.00 | 0.00 | 0.00 | 81 | 1012.8 |
| 20260903112713 | 66 | 27 | 2.0 | 4.0 | 0.00 | 0.00 | 0.00 | 80 | 1012.8 |
| 20260903112206 | 66 | 10 | 2.0 | 4.0 | 0.00 | 0.00 | 0.00 | 81 | 1012.8 |
| 20260903111659 | 66 | 9 | 2.0 | 4.0 | 0.00 | 0.00 | 0.00 | 81 | 1012.8 |
| 20260903111153 | 66 | 42 | 1.0 | 4.0 | 0.00 | 0.00 | 0.00 | 81 | 1012.8 |
| 20260903110647 | 66 | 19 | 2.0 | 6.0 | 0.00 | 0.00 | 0.00 | 81 | 1012.8 |
| 20260903110141 | 66 | 10 | 2.0 | 6.0 | 0.00 | 0.00 | 0.00 | 81 | 1012.8 |
| 20260903105634 | 66 | 12 | 2.0 | 4.0 | 0.00 | 0.00 | 0.00 | 81 | 1012.8 |
| 20260903104621 | 66 | 329 | 1.0 | 3.0 | 0.00 | 0.00 | 0.00 | 82 | 1012.8 |
| 20260903103607 | 66 | 71 | 3.0 | 4.0 | 0.00 | 0.00 | 0.00 | 81 | 1012.8 |
| 20260903103101 | 66 | 35 | 2.0 | 4.0 | 0.00 | 0.00 | 0.00 | 81 | 1012.8 |
| 20260903102554 | 66 | 3 | 2.0 | 6.0 | 0.00 | 0.00 | 0.00 | 80 | 1012.8 |
| 20260903102048 | 66 | 42 | 2.0 | 6.0 | 0.00 | 0.00 | 0.00 | 80 | 1012.8 |
| 20260903101543 | 66 | 19 | 3.0 | 4.0 | 0.00 | 0.00 | 0.00 | 80 | 1013.1 |
| 20260903101035 | 66 | 20 | 2.0 | 4.0 | 0.00 | 0.00 | 0.00 | 80 | 1012.8 |
| 20260903100528 | 66 | 10 | 2.0 | 4.0 | 0.00 | 0.00 | 0.00 | 79 | 1012.8 |
| 20260903100022 | 66 | 349 | 2.0 | 4.0 | 0.00 | 0.00 | 0.00 | 79 | 1013.1 |
| 20260903095516 | 66 | 356 | 2.0 | 4.0 | 0.00 | 0.00 | 0.00 | 79 | 1012.8 |
| 20260903094502 | 66 | 29 | 3.0 | 4.0 | 0.00 | 0.00 | 0.00 | 78 | 1013.1 |
| 20260903093956 | 66 | 42 | 3.0 | 4.0 | 0.00 | 0.00 | 0.00 | 78 | 1013.1 |
| 20260903093450 | 66 | 30 | 4.0 | 4.0 | 0.00 | 0.00 | 0.00 | 78 | 1012.8 |
| 20260903092436 | 66 | 19 | 3.0 | 4.0 | 0.00 | 0.00 | 0.00 | 77 | 1013.1 |
| 20260903091930 | 66 | 18 | 3.0 | 4.0 | 0.00 | 0.00 | 0.00 | 77 | 1013.4 |
| 20260903091424 | 66 | 22 | 3.0 | 4.0 | 0.00 | 0.00 | 0.00 | 77 | 1013.1 |
| 20260903090919 | 66 | 30 | 3.0 | 4.0 | 0.00 | 0.00 | 0.00 | 76 | 1013.4 |
| 20260903090411 | 66 | 14 | 3.0 | 3.0 | 0.00 | 0.00 | 0.00 | 76 | 1013.4 |
| 20260903085904 | 66 | 359 | 2.0 | 4.0 | 0.00 | 0.00 | 0.00 | 76 | 1013.1 |
| 20260903085357 | 66 | 339 | 1.0 | 4.0 | 0.00 | 0.00 | 0.00 | 76 | 1013.4 |
| 20260903084851 | 66 | 339 | 1.0 | 3.0 | 0.00 | 0.00 | 0.00 | 75 | 1013.4 |
| 20260903084345 | 66 | 0 | 1.0 | 3.0 | 0.00 | 0.00 | 0.00 | 75 | 1013.4 |
| 20260903083839 | 66 | 6 | 2.0 | 3.0 | 0.00 | 0.00 | 0.00 | 75 | 1013.4 |
| 20260903083332 | 66 | 343 | 1.0 | 3.0 | 0.00 | 0.00 | 0.00 | 74 | 1013.4 |
| 20260903082825 | 67 | 353 | 1.0 | 3.0 | 0.00 | 0.00 | 0.00 | 74 | 1013.4 |
| 20260903082319 | 67 | 339 | 2.0 | 4.0 | 0.00 | 0.00 | 0.00 | 74 | 1013.4 |
| 20260903081813 | 67 | 4 | 3.0 | 4.0 | 0.00 | 0.00 | 0.00 | 73 | 1013.4 |
| 20260903080800 | 66 | 17 | 2.0 | 4.0 | 0.00 | 0.00 | 0.00 | 73 | 1013.4 |
| 20260903080253 | 66 | 6 | 1.0 | 2.0 | 0.00 | 0.00 | 0.00 | 72 | 1013.4 |
| 20260903075746 | 66 | 334 | 1.0 | 2.0 | 0.00 | 0.00 | 0.00 | 71 | 1013.4 |
| 20260903075240 | 66 | 328 | 1.0 | 3.0 | 0.00 | 0.00 | 0.00 | 71 | 1013.8 |
| 20260903074734 | 67 | 331 | 1.0 | 3.0 | 0.00 | 0.00 | 0.00 | 71 | 1013.4 |
| 20260903073721 | 66 | 1 | 1.0 | 3.0 | 0.00 | 0.00 | 0.00 | 71 | 1013.4 |
| 20260903073214 | 66 | 336 | 0.0 | 3.0 | 0.00 | 0.00 | 0.00 | 71 | 1013.8 |
| 20260903072708 | 66 | 13 | 1.0 | 3.0 | 0.00 | 0.00 | 0.00 | 71 | 1013.4 |
| 20260903072202 | 66 | 339 | 1.0 | 2.0 | 0.00 | 0.00 | 0.00 | 71 | 1013.4 |
| 20260903071654 | 66 | 336 | 2.0 | 2.0 | 0.00 | 0.00 | 0.00 | 71 | 1013.4 |
| 20260903070642 | 66 | 323 | 1.0 | 1.0 | 0.00 | 0.00 | 0.00 | 69 | 1013.4 |
| 20260903070135 | 67 | 323 | 0.0 | 2.0 | 0.00 | 0.00 | 0.00 | 69 | 1013.4 |
| 20260903065628 | 67 | 310 | 0.0 | 2.0 | 0.00 | 0.00 | 0.00 | 68 | 1013.8 |
| 20260903065122 | 67 | 332 | 0.0 | 2.0 | 0.00 | 0.00 | 0.00 | 68 | 1013.4 |
| 20260903064616 | 67 | 339 | 1.0 | 2.0 | 0.00 | 0.00 | 0.00 | 68 | 1013.4 |
| 20260903064109 | 67 | 337 | 1.0 | 2.0 | 0.00 | 0.00 | 0.00 | 68 | 1013.4 |
| 20260903063603 | 67 | 333 | 1.0 | 2.0 | 0.00 | 0.00 | 0.00 | 68 | 1013.4 |
| 20260903063056 | 67 | 348 | 1.0 | 2.0 | 0.00 | 0.00 | 0.00 | 68 | 1013.4 |
| 20260903062550 | 67 | 321 | 1.0 | 1.0 | 0.00 | 0.00 | 0.00 | 68 | 1013.4 |
| 20260903062043 | 67 | 340 | 1.0 | 1.0 | 0.00 | 0.00 | 0.00 | 68 | 1013.4 |
| 20260903061537 | 68 | 326 | 1.0 | 3.0 | 0.00 | 0.00 | 0.00 | 68 | 1013.4 |
| 20260903061030 | 68 | 355 | 1.0 | 3.0 | 0.00 | 0.00 | 0.00 | 67 | 1013.4 |
| 20260903060524 | 68 | 6 | 2.0 | 3.0 | 0.00 | 0.00 | 0.00 | 67 | 1013.4 |
| 20260903060017 | 68 | 25 | 2.0 | 2.0 | 0.00 | 0.00 | 0.00 | 68 | 1013.4 |
| 20260903055511 | 68 | 354 | 1.0 | 2.0 | 0.00 | 0.00 | 0.00 | 70 | 1013.4 |
| 20260903053951 | 68 | 335 | 0.0 | 0.0 | 0.00 | 0.00 | 0.00 | 70 | 1013.1 |
| 20260903053446 | 68 | 335 | 0.0 | 1.0 | 0.00 | 0.00 | 0.00 | 70 | 1013.4 |
| 20260903052938 | 68 | 335 | 0.0 | 1.0 | 0.00 | 0.00 | 0.00 | 70 | 1013.4 |
| 20260903052432 | 68 | 334 | 1.0 | 1.0 | 0.00 | 0.00 | 0.00 | 70 | 1013.1 |
| 20260903051926 | 68 | 313 | 0.0 | 1.0 | 0.00 | 0.00 | 0.00 | 70 | 1013.4 |
| 20260903050912 | 69 | 310 | 1.0 | 2.0 | 0.00 | 0.00 | 0.00 | 69 | 1013.4 |
| 20260903045859 | 69 | 317 | 0.0 | 2.0 | 0.00 | 0.00 | 0.00 | 68 | 1013.1 |
| 20260903044846 | 70 | 355 | 1.0 | 3.0 | 0.00 | 0.00 | 0.00 | 68 | 1013.4 |
| 20260903044340 | 70 | 0 | 2.0 | 3.0 | 0.00 | 0.00 | 0.00 | 68 | 1013.4 |
| 20260903043833 | 70 | 3 | 1.0 | 4.0 | 0.00 | 0.00 | 0.00 | 68 | 1013.4 |
| 20260903043327 | 70 | 23 | 1.0 | 6.0 | 0.00 | 0.00 | 0.00 | 68 | 1013.1 |
| 20260903042821 | 70 | 43 | 4.0 | 6.0 | 0.00 | 0.00 | 0.00 | 68 | 1013.1 |
| 20260903042314 | 70 | 39 | 3.0 | 6.0 | 0.00 | 0.00 | 0.00 | 68 | 1013.1 |
| 20260903041301 | 70 | 27 | 4.0 | 4.0 | 0.00 | 0.00 | 0.00 | 67 | 1013.1 |
| 20260903040755 | 70 | 48 | 4.0 | 4.0 | 0.00 | 0.00 | 0.00 | 67 | 1013.1 |
| 20260903035235 | 71 | 19 | 2.0 | 6.0 | 0.00 | 0.00 | 0.00 | 66 | 1013.1 |
| 20260903034223 | 71 | 41 | 3.0 | 4.0 | 0.00 | 0.00 | 0.00 | 66 | 1012.8 |
| 20260903033716 | 71 | 340 | 1.0 | 6.0 | 0.00 | 0.00 | 0.00 | 66 | 1012.8 |
| 20260903033209 | 71 | 43 | 3.0 | 7.0 | 0.00 | 0.00 | 0.00 | 66 | 1012.8 |
| 20260903032702 | 71 | 44 | 4.0 | 7.0 | 0.00 | 0.00 | 0.00 | 66 | 1012.8 |